TimeEST,TemperatureF,Dew PointF,Humidity,Sea Level PressureIn,VisibilityMPH,Wind Direction,Wind SpeedMPH,Gust SpeedMPH,PrecipitationIn,Events,Conditions,WindDirDegrees,DateUTC
12:53 AM,37.9,21.9,53,30.28,10.0,Calm,Calm,-,N/A,,Clear,0,2013-11-09 05:53:00
1:53 AM,37.9,23.0,55,30.27,10.0,South,3.5,-,N/A,,Clear,170,2013-11-09 06:53:00
2:53 AM,37.9,23.0,55,30.27,10.0,South,3.5,-,N/A,,Clear,190,2013-11-09 07:53:00
3:53 AM,35.1,24.1,64,30.27,10.0,SSW,3.5,-,N/A,,Clear,200,2013-11-09 08:53:00
4:53 AM,34.0,24.1,67,30.25,10.0,South,4.6,-,N/A,,Clear,190,2013-11-09 09:53:00
5:53 AM,35.1,24.1,64,30.25,10.0,SSW,5.8,-,N/A,,Clear,200,2013-11-09 10:53:00
6:53 AM,34.0,24.1,67,30.26,10.0,SSW,4.6,-,N/A,,Clear,200,2013-11-09 11:53:00
7:53 AM,36.0,25.0,64,30.25,10.0,SSW,4.6,-,N/A,,Clear,200,2013-11-09 12:53:00
8:53 AM,39.0,26.1,60,30.26,10.0,Variable,3.5,-,N/A,,Clear,0,2013-11-09 13:53:00
9:53 AM,45.0,26.1,48,30.25,10.0,Variable,4.6,-,N/A,,Clear,0,2013-11-09 14:53:00
10:53 AM,53.1,28.0,38,30.24,10.0,Variable,3.5,-,N/A,,Clear,0,2013-11-09 15:53:00
11:53 AM,57.0,24.1,28,30.22,10.0,Variable,6.9,23.0,N/A,,Clear,0,2013-11-09 16:53:00
12:53 PM,59.0,25.0,27,30.19,10.0,SSW,8.1,-,N/A,,Clear,210,2013-11-09 17:53:00
1:53 PM,57.0,21.9,26,30.17,10.0,Variable,6.9,-,N/A,,Clear,0,2013-11-09 18:53:00
2:53 PM,59.0,21.9,24,30.16,10.0,SW,5.8,-,N/A,,Clear,230,2013-11-09 19:53:00
3:53 PM,59.0,21.9,24,30.16,10.0,Variable,6.9,-,N/A,,Clear,0,2013-11-09 20:53:00
4:53 PM,57.0,21.9,26,30.15,10.0,Variable,3.5,-,N/A,,Clear,0,2013-11-09 21:53:00
5:53 PM,54.0,25.0,33,30.14,10.0,Variable,4.6,-,N/A,,Clear,0,2013-11-09 22:53:00
6:53 PM,53.1,26.1,35,30.16,10.0,SW,4.6,-,N/A,,Overcast,230,2013-11-09 23:53:00
7:53 PM,51.1,25.0,36,30.17,10.0,Variable,4.6,-,N/A,,Clear,0,2013-11-10 00:53:00
8:53 PM,50.0,27.0,41,30.18,10.0,Variable,6.9,-,N/A,,Clear,0,2013-11-10 01:53:00
9:53 PM,48.9,28.9,46,30.19,10.0,Variable,5.8,-,N/A,,Clear,0,2013-11-10 02:53:00
10:53 PM,48.9,28.9,46,30.19,10.0,Variable,4.6,-,N/A,,Clear,0,2013-11-10 03:53:00
11:53 PM,48.0,30.0,50,30.19,10.0,Variable,5.8,-,N/A,,Clear,0,2013-11-10 04:53:00